Kirksville, MO

12:58 PM CST on February 18, 2018 (GMT -0600)
Kirksville Regional

Weather History for KIRK - June, 2013

Change the Weather History Date:

Saturday, June 22, 2013

  Actual Average Record
Temperature  
Mean Temperature 83 °F 72 °F  
Max Temperature 90 °F 83 °F 99 °F (1988)
Min Temperature 75 °F 62 °F 47 °F (1963)
Degree Days  
Heating Degree Days 0 0  
Month to date heating degree days 36 12  
Since 1 June heating degree days 36 12  
Since 1 July heating degree days 6071 5852  
Cooling Degree Days 18 8  
Month to date cooling degree days 122 125  
Year to date cooling degree days 190 187  
Since 1 June cooling degree days 122 125  
Growing Degree Days 32 (Base 50)    
Moisture  
Dew Point 72 °F    
Average Humidity 72    
Maximum Humidity 87    
Minimum Humidity 56    
Precipitation  
Precipitation 0.00 in 0.15 in 2.60 in (1925)
Month to date precipitation 1.79 3.83  
Year to date precipitation 26.26 17.98  
Sea Level Pressure  
Sea Level Pressure 29.97 in    
Wind  
Wind Speed 11 mph (South)    
Max Wind Speed 17 mph    
Max Gust Speed 25 mph    
Visibility 10 miles    
Events      
T = Trace of Precipitation, MM = Missing Value Source: NWS Daily Summary

Daily Weather History Graph

Daily Weather History Graph

Search for Another Location

Airport or City:

Trip Planner

Search our weather history database for the weather conditions in past years. The results will help you decide how hot, cold, wet, or windy it might be!

Date:

Astronomy

Jun. 22, 2013 Rise Set
Actual Time 5:41 AM CDT 8:43 PM CDT
Civil Twilight 5:08 AM CDT 9:15 PM CDT
Nautical Twilight 4:26 AM CDT 9:57 PM CDT
Astronomical Twilight 3:37 AM CDT 10:46 PM CDT
Moon 7:58 PM CDT (6/22) 4:54 AM CDT (6/22)
Length of Visible Light 16h 07m
Length of Day
15h 01m
Waxing Gibbous, 99% of the Moon is Illuminated
Jun 22
Waxing Gibbous
Jun 23
Full
Jun 29
Last Quarter
Jul 8
New
Jul 15
First Quarter

Hourly Weather History & Observations

Time (CDT) Temp. Heat Index Dew Point Humidity Pressure Visibility Wind Dir Wind Speed Gust Speed Precip Events Conditions
12:55 AM 78.1 °F - 73.0 °F 84% 29.98 in 10.0 mi South 8.1 mph - N/A   Clear
1:55 AM 77.0 °F - 72.0 °F 84% 29.96 in 10.0 mi South 10.4 mph - N/A   Clear
2:55 AM 77.0 °F - 72.0 °F 84% 29.96 in 10.0 mi South 10.4 mph - N/A   Clear
3:55 AM 75.0 °F - 72.0 °F 90% 29.98 in 9.0 mi SSW 5.8 mph - N/A   Clear
4:55 AM 75.0 °F - 72.0 °F 90% 29.99 in 9.0 mi South 5.8 mph - N/A   Clear
5:55 AM 75.0 °F - 72.0 °F 90% 30.00 in 8.0 mi South 9.2 mph - N/A   Clear
6:55 AM 75.9 °F - 72.0 °F 87% 30.00 in 8.0 mi SSW 9.2 mph - N/A   Clear
7:55 AM 75.9 °F - 72.0 °F 87% 30.01 in 8.0 mi South 6.9 mph - N/A   Clear
8:55 AM 78.1 °F - 73.0 °F 84% 30.03 in 8.0 mi South 6.9 mph - N/A   Clear
9:55 AM 82.0 °F 87.4 °F 73.0 °F 74% 30.03 in 9.0 mi SSW 9.2 mph - N/A   Clear
10:55 AM 84.0 °F 90.2 °F 73.0 °F 69% 30.04 in 10.0 mi SW 10.4 mph - N/A   Clear
11:55 AM 87.1 °F 95.4 °F 73.9 °F 65% 30.04 in 10.0 mi SSW 10.4 mph - N/A   Partly Cloudy
12:55 PM 88.0 °F 95.6 °F 73.0 °F 61% 30.01 in 10.0 mi SSW 12.7 mph 18.4 mph N/A   Clear
1:55 PM 89.1 °F 96.0 °F 72.0 °F 57% 29.99 in 10.0 mi SSW 13.8 mph - N/A   Clear
2:55 PM 90.0 °F 97.9 °F 73.0 °F 57% 29.95 in 10.0 mi South 12.7 mph 20.7 mph N/A   Partly Cloudy
3:55 PM 90.0 °F 96.9 °F 72.0 °F 55% 29.91 in 10.0 mi SSW 15.0 mph 21.9 mph N/A   Clear
4:55 PM 89.1 °F 97.0 °F 73.0 °F 59% 29.91 in 10.0 mi South 13.8 mph 25.3 mph N/A   Partly Cloudy
5:55 PM 87.1 °F 94.5 °F 73.0 °F 63% 29.92 in 10.0 mi South 10.4 mph - N/A   Clear
6:55 PM 86.0 °F 93.0 °F 73.0 °F 65% 29.92 in 10.0 mi South 12.7 mph - N/A   Clear
7:55 PM 84.0 °F 91.2 °F 73.9 °F 72% 29.92 in 10.0 mi South 12.7 mph - N/A   Clear
8:55 PM 81.0 °F 85.2 °F 72.0 °F 74% 29.94 in 9.0 mi South 11.5 mph - N/A   Clear
9:55 PM 80.1 °F 83.6 °F 71.1 °F 74% 29.95 in 10.0 mi South 12.7 mph - N/A   Clear
10:55 PM 78.1 °F - 72.0 °F 81% 29.96 in 10.0 mi SSE 10.4 mph - N/A   Clear
11:55 PM 77.0 °F - 69.1 °F 76% 29.96 in 10.0 mi South 10.4 mph 19.6 mph N/A   Clear